CONSULTA PERSONALIZADA Alfaro
      Predicción AEMET      
Valores extremos - medios de hoy
Fecha T (C) P (l/m2) Hr (%) Rs (W/m2) VV (km/h) DV Tint.(C)
Max Med Min Acu Med Med Max Med Max Med Min
 11-12-2018   9,7   6,2   3,0   0,0   79   95   18,0   218   19,4   17,5   15,9 
Datos de hoy
Fecha T (C) P (l/m2) Hr (%) Rs (W/m2) VV (km/h) DV Tint.(C)
Max Med Min Acu Med Med Max Med Max Med Min
 11-12-2018 19:30:00   8,2   8,2   8,1   0,0   70   0   3,6   351   19,1   18,9   18,7 
 11-12-2018 19:15:00   8,4   8,2   8,1   0,0   69   0   2,5   332   19,2   18,9   18,7 
 11-12-2018 19:00:00   8,5   8,4   8,3   0,0   68   0   3,6   26   19,1   18,9   18,7 
 11-12-2018 18:45:00   8,9   8,6   8,3   0,0   68   0   5,4   24   19,1   18,9   18,7 
 11-12-2018 18:30:00   9,1   8,8   8,6   0,0   68   0   4,3   25   19,1   18,9   18,7 
 11-12-2018 18:15:00   9,2   9,1   9,0   0,0   69   0   2,9   219   19,0   18,8   18,7 
 11-12-2018 18:00:00   9,2   9,2   9,1   0,0   69   0   3,6   77   19,0   18,8   18,6 
 11-12-2018 17:45:00   9,2   9,1   9,1   0,0   69   1   1,4   77   19,0   18,8   18,6 
 11-12-2018 17:30:00   9,1   8,9   8,8   0,0   68   6   1,4   77   19,0   18,8   18,6 
 11-12-2018 17:15:00   8,9   8,9   8,9   0,0   68   19   2,5   59   18,9   18,8   18,6 
 11-12-2018 17:00:00   9,2   9,0   8,9   0,0   68   38   4,3   51   18,9   18,7   18,5 
 11-12-2018 16:45:00   9,4   9,3   9,2   0,0   68   54   3,6   23   18,8   18,6   18,4 
 11-12-2018 16:30:00   9,5   9,4   9,3   0,0   67   76   5,4   228   18,7   18,5   18,3 
 11-12-2018 16:15:00   9,6   9,5   9,5   0,0   67   96   4,0   245   18,6   18,4   18,2 
 11-12-2018 16:00:00   9,5   9,5   9,4   0,0   66   117   2,5   304   18,6   18,4   18,2 
 11-12-2018 15:45:00   9,6   9,4   9,3   0,0   65   144   4,3   306   18,4   18,2   18,0 
 11-12-2018 15:30:00   9,7   9,5   9,4   0,0   65   215   6,1   245   18,3   18,1   17,8 
 11-12-2018 15:15:00   9,5   9,3   9,1   0,0   66   187   5,8   228   18,2   18,0   17,7 
 11-12-2018 15:00:00   9,4   9,2   9,0   0,0   65   237   9,0   251   18,1   17,8   17,6 
 11-12-2018 14:45:00   9,4   9,1   8,8   0,0   65   289   7,2   262   17,8   17,6   17,5 
 11-12-2018 14:30:00   9,0   8,8   8,3   0,0   66   295   5,0   333   17,7   17,5   17,3 
 11-12-2018 14:15:00   8,3   8,2   8,2   0,0   69   273   4,7   26   17,6   17,4   17,1 
 11-12-2018 14:00:00   8,7   8,4   8,2   0,0   70   310   4,3   288   17,5   17,3   17,1 
 11-12-2018 13:45:00   8,4   8,0   7,7   0,0   74   326   3,6   316   17,3   17,1   16,8 
 11-12-2018 13:30:00   7,7   7,3   7,1   0,0   75   342   5,4   38   17,0   16,8   16,5 
 11-12-2018 13:15:00   7,3   7,1   6,8   0,0   77   452   7,2   40   17,0   16,7   16,4 
 11-12-2018 13:00:00   7,0   6,8   6,6   0,0   78   454   6,1   26   16,8   16,6   16,4 
 11-12-2018 12:45:00   6,6   6,3   6,0   0,0   80   372   4,7   11   16,7   16,5   16,3 
 11-12-2018 12:30:00   6,4   5,8   5,6   0,0   83   357   5,0   323   16,6   16,4   16,2 
 11-12-2018 12:15:00   5,7   5,5   5,4   0,0   83   330   4,7   328   16,6   16,3   16,1 
 11-12-2018 12:00:00   5,6   5,4   5,1   0,0   84   354   2,9   16   16,5   16,3   16,1 
 11-12-2018 11:45:00   5,3   4,8   4,4   0,0   87   328   4,0   19   16,5   16,3   16,0 
 11-12-2018 11:30:00   4,4   4,3   4,0   0,0   88   296   4,7   41   16,4   16,2   15,9 
 11-12-2018 11:15:00   4,0   3,8   3,5   0,0   89   273   5,0   42   16,3   16,1   15,9 
 11-12-2018 11:00:00   3,5   3,3   3,1   0,0   88   271   5,4   37   16,3   16,1   16,0 
 11-12-2018 10:45:00   3,2   3,1   3,0   0,0   87   220   5,4   41   16,4   16,2   15,9 
 11-12-2018 10:30:00   3,3   3,2   3,2   0,0   86   173   4,0   27   16,4   16,2   16,0 
 11-12-2018 10:15:00   3,8   3,4   3,2   0,0   86   141   3,2   2   16,4   16,2   16,0 
 11-12-2018 10:00:00   3,8   3,8   3,7   0,0   85   127   2,5   356   16,5   16,3   16,0 
 11-12-2018 09:45:00   3,9   3,8   3,7   0,0   85   93   0,0   264   16,5   16,3   16,1 
 11-12-2018 09:30:00   3,8   3,7   3,6   0,0   87   79   4,7   254   16,5   16,3   16,1 
 11-12-2018 09:15:00   4,0   3,8   3,6   0,0   88   64   6,1   255   16,5   16,3   16,1 
 11-12-2018 09:00:00   3,8   3,6   3,5   0,0   87   37   4,3   265   16,6   16,3   16,1 
 11-12-2018 08:45:00   3,8   3,7   3,6   0,0   87   13   4,3   284   16,6   16,4   16,2 
 11-12-2018 08:30:00   3,8   3,7   3,6   0,0   88   6   5,4   284   16,7   16,5   16,3 
 11-12-2018 08:15:00   4,0   3,9   3,7   0,0   87   1   6,1   275   16,8   16,5   16,3 
 11-12-2018 08:00:00   4,2   4,0   3,9   0,0   87   0   8,3   287   16,7   16,5   16,3 
 11-12-2018 07:45:00   4,3   3,9   3,8   0,0   88   0   9,0   294   16,9   16,7   16,4 
 11-12-2018 07:30:00   3,9   3,8   3,7   0,0   88   0   9,4   311   17,0   16,8   16,6 
 11-12-2018 07:15:00   4,3   4,1   3,9   0,0   86   0   9,7   314   17,0   16,8   16,6 
 11-12-2018 07:00:00   4,5   4,4   4,3   0,0   84   0   9,7   294   17,1   16,8   16,6 
 11-12-2018 06:45:00   4,6   4,5   4,4   0,0   82   0   8,6   287   17,2   16,9   16,7 
 11-12-2018 06:30:00   4,9   4,8   4,6   0,0   80   0   9,7   298   17,2   17,0   16,8 
 11-12-2018 06:15:00   4,9   4,8   4,6   0,0   80   0   11,2   283   17,2   17,0   16,7 
 11-12-2018 06:00:00   5,0   4,8   4,7   0,0   80   0   13,7   274   17,2   16,9   16,7 
 11-12-2018 05:45:00   4,9   4,6   4,4   0,0   83   0   15,8   273   17,2   17,0   16,7 
 11-12-2018 05:30:00   4,5   4,3   4,1   0,0   86   0   11,9   278   17,5   17,2   17,0 
 11-12-2018 05:15:00   4,8   4,6   4,4   0,0   86   0   15,8   291   17,6   17,4   17,2 
 11-12-2018 05:00:00   4,8   4,7   4,6   0,0   84   0   12,2   288   17,7   17,4   17,2 
 11-12-2018 04:45:00   5,1   5,0   4,8   0,0   83   0   14,0   286   17,7   17,4   17,2 
 11-12-2018 04:30:00   4,9   4,8   4,7   0,0   83   0   11,2   284   17,7   17,5   17,2 
 11-12-2018 04:15:00   4,9   4,7   4,6   0,0   85   0   14,8   268   17,6   17,4   17,2 
 11-12-2018 04:00:00   4,7   4,6   4,4   0,0   87   0   15,8   270   17,6   17,4   17,2 
 11-12-2018 03:45:00   4,8   4,7   4,5   0,0   87   0   16,9   266   17,7   17,5   17,2 
 11-12-2018 03:30:00   4,9   4,8   4,6   0,0   86   0   18,0   268   17,8   17,6   17,4 
 11-12-2018 03:15:00   5,0   4,9   4,7   0,0   87   0   18,0   274   18,1   17,9   17,6 
 11-12-2018 03:00:00   5,0   4,9   4,8   0,0   88   0   15,5   284   18,3   18,0   17,8 
 11-12-2018 02:45:00   5,8   5,1   4,9   0,0   86   0   14,0   280   18,3   18,1   17,9 
 11-12-2018 02:30:00   6,2   6,1   5,8   0,0   83   0   16,9   294   18,6   18,4   18,1 
 11-12-2018 02:15:00   6,5   6,3   6,0   0,0   83   0   15,8   296   18,6   18,4   18,2 
 11-12-2018 02:00:00   6,8   6,4   6,0   0,0   82   0   16,6   294   18,7   18,5   18,3 
 11-12-2018 01:45:00   6,7   6,3   5,9   0,0   84   0   17,6   280   18,8   18,5   18,3 
 11-12-2018 01:30:00   6,2   6,0   5,8   0,0   84   0   12,2   282   19,0   18,7   18,6 
 11-12-2018 01:15:00   6,6   6,4   6,2   0,0   83   0   13,0   320   19,1   18,9   18,7 
 11-12-2018 01:00:00   7,1   6,9   6,6   0,0   81   0   10,8   307   19,1   18,9   18,7 
 11-12-2018 00:45:00   7,5   7,2   6,9   0,0   80   0   11,2   311   19,2   19,0   18,8 
 11-12-2018 00:30:00   7,1   7,0   6,9   0,0   81   0   9,0   331   19,3   19,1   18,9 
 11-12-2018 00:15:00   6,9   6,6   6,5   0,0   82   0   10,4   326   19,4   19,1   18,9 
 11-12-2018 00:00:00   6,9   6,5   6,4   0,0   82   0   12,2   330   19,3   19,1   18,8 
Datos diarios
Fecha desde Fecha hasta       Visualizar         Exportar Excel  
     
Alfaro - Fecha desde: 04-12-2018 - Fecha hasta: 10-12-2018
Fecha T (C) P (l/m2) Hr (%) Rs (W/m2) VV (km/h) DV Tint.(C)
Max Med Min Acu Med Med Max Med Max Med Min
 10-12-2018   12,6   9,4   6,4   0,0   72   87   31,0   311   20,6   19,2   17,4 
 09-12-2018   14,8   10,8   6,8   0,0   67   102   34,2   314   21,3   19,6   17,2 
 08-12-2018   13,7   11,0   8,3   0,0   67   100   28,4   308   22,5   20,3   18,7 
 07-12-2018   13,8   9,3   4,6   0,0   76   107   38,5   299   21,1   19,0   16,8 
 06-12-2018   14,8   10,6   7,5   0,0   82   98   31,3   313   21,9   19,8   17,7 
 05-12-2018   10,9   8,7   6,6   0,1   97   27   17,6   249   22,7   20,6   19,8 
 04-12-2018   16,1   11,8   6,9   0,0   85   96   11,9   158   23,5   20,9   18,9 
Datos mensuales
        Exportar      
   
Alfaro
Fecha T (C) P (l/m2) Hr (%) Rs (W/m2) VV (km/h) DV Tint.(C)
Max Med Min Acu Med Med Max Med Max Med Min
 Diciembre -2018   16,1   10,2   4,6   0,1   77   81   38,5   259   23,5   19,8   16,7 
 Noviembre -2018   20,3   10,8   0,9   33,4   78   80   52,9   193   26,3   18,5   9,5 
 Octubre -2018   26,8   15,1   3,2   23,0   67   142   68,0   252   27,6   19,0   6,9 
 Septiembre-2018   32,4   21,2   10,9   27,8   63   236   51,5   226   33,9   27,1   18,7 
 Agosto -2018   36,5   23,4   13,1   0,9   58   293   52,6   242   38,8   29,5   21,3 
 Julio -2018   35,7   23,7   14,9   6,2   60   330   70,9   247   37,6   30,0   22,6 
 Junio -2018   33,5   20,2   11,3   32,9   63   300   69,1   236   36,1   25,2   16,4 
 Mayo -2018   26,2   15,4   4,5   37,3   67   280   59,8   245   28,7   20,2   11,3 
 Abril -2018   25,2   13,2   2,2   107,6   68   223   65,2   192   27,5   17,5   7,0 
 Marzo -2018   19,2   9,3   1,0   41,0   66   172   76,0   217   21,6   12,0   4,0 
 Febrero -2018   17,7   5,6   -2,9   19,7   73   111   64,8   279   24,1   12,9   3,0 
 Enero -2018   17,9   7,7   -3,0   52,2   79   90   56,9   259   23,9   16,8   10,7 
PARÁMETROS
Desc. Abr. Descripción
T Temperatura del aire
P Precipitación acumulada
Hr Humedad relativa del aire
Rs Radiación solar
VV Velocidad del viento
DV Dirección del viento
Tint Temperatura interior
 
FUNCIONES
Desc. Abr. Descripción
Max Máxima
Med Media
Min Mínima
Acu Acumulado